Retour au catalogue

STARLINK-35111

ActifCommunicationsVLEO
NORAD 65463·PAYLOAD·🇺🇸 United States

Lancé Sep 3, 2025 depuis Cape Canaveral Space Force Station

Loading…

Prochains Passages (prochaines 24 heures)

TLE

FraisSource: CelesTrak SupGP

Époque: Sep 15, 2026, 03:04 UTC

1 65463C 25195F   26258.12826389 -.00003819  00000+0 -12281-3 0  2585
2 65463  53.1576  96.8104 0001275  86.6064  70.0890 15.31699133    12

Suivez STARLINK-35111 en temps réel avec AllMySat

Download on the App Store